GW1788 Weather Reports


time (UTC)temp
C
wind
direction
speed
KPH
gust
KPH
rain 1hr
cm
rain 24hr
cm
rain mn
cm
humidity
%
barometer
mb
20260508220532 10 270 8.0 14.5 0.00 0.00 0.00 10 1006.8
20260508215515 10 293 3.2 14.5 0.00 0.00 0.00 10 1006.6
20260508215001 10 293 6.4 14.5 0.00 0.00 0.00 10 1006.6
20260508214452 10 293 4.8 12.9 0.00 0.00 0.00 10 1006.7
20260508212921 10 293 6.4 17.7 0.00 0.00 0.00 10 1006.3
20260508212411 11 293 11.3 17.7 0.00 0.00 0.00 10 1006.4
20260508211351 11 293 6.4 17.7 0.00 0.00 0.00 10 1006.2
20260508210842 11 293 9.7 17.7 0.00 0.00 0.00 10 1005.9
20260508210331 11 293 9.7 17.7 0.00 0.00 0.00 10 1006.1
20260508205822 11 293 11.3 22.5 0.00 0.00 0.00 10 1005.9
20260508205311 11 293 8.0 29.0 0.00 0.00 0.00 10 1006.1
20260508204800 11 293 9.7 29.0 0.00 0.00 0.00 10 1005.9
20260508204253 12 293 14.5 27.4 0.00 0.00 0.00 10 1005.9
20260508203744 12 315 14.5 29.0 0.00 0.00 0.00 10 1005.8
20260508202721 12 293 12.9 27.4 0.00 0.00 0.00 10 1005.7
20260508202210 12 293 12.9 29.0 0.00 0.00 0.00 10 1005.6
20260508201659 12 293 12.9 32.2 0.00 0.00 0.00 10 1005.5
20260508200642 13 293 19.3 40.2 0.00 0.00 0.00 10 1005.5
20260508200129 13 293 24.1 40.2 0.00 0.00 0.00 10 1005.6
20260508195618 13 270 17.7 38.6 0.00 0.00 0.00 10 1005.6
20260508195110 13 315 17.7 38.6 0.00 0.00 0.00 10 1005.7
20260508194048 13 293 17.7 48.3 0.00 0.00 0.00 10 1005.5
20260508193028 13 293 16.1 38.6 0.00 0.00 0.00 10 1005.2
20260508192518 13 270 20.9 43.5 0.00 0.00 0.00 10 1005.3
20260508192008 13 293 25.7 43.5 0.00 0.00 0.00 10 1005.4
20260508191459 13 270 27.4 48.3 0.00 0.00 0.00 10 1005.0
20260508190949 13 270 24.1 48.3 0.00 0.00 0.00 10 1005.3
20260508190438 13 293 25.7 46.7 0.00 0.00 0.00 10 1005.5
20260508185927 13 293 35.4 46.7 0.00 0.00 0.00 10 1005.4
20260508185418 13 270 33.8 43.5 0.00 0.00 0.00 10 1005.5
20260508184908 13 293 20.9 46.7 0.00 0.00 0.00 10 1005.3
20260508184356 13 293 38.6 48.3 0.00 0.00 0.00 10 1005.1
20260508183847 13 293 37.0 48.3 0.00 0.00 0.00 10 1005.5
20260508182827 13 270 33.8 49.9 0.00 0.00 0.00 10 1005.3
20260508182316 13 293 32.2 49.9 0.00 0.00 0.00 10 1005.3
20260508181807 13 293 29.0 48.3 0.00 0.00 0.00 10 1005.3
20260508181256 13 293 33.8 43.5 0.00 0.00 0.00 10 1005.5
20260508180750 13 270 27.4 46.7 0.00 0.00 0.00 10 1005.3
20260508175730 13 293 33.8 46.7 0.00 0.00 0.00 10 1005.6
20260508175220 13 270 37.0 46.7 0.00 0.00 0.00 10 1005.4
20260508174710 14 270 33.8 46.7 0.00 0.00 0.00 10 1005.4
20260508174201 13 293 33.8 46.7 0.00 0.00 0.00 10 1005.4
20260508173649 13 293 33.8 46.7 0.00 0.00 0.00 10 1005.3
20260508173140 13 270 24.1 43.5 0.00 0.00 0.00 10 1005.4
20260508172631 13 293 37.0 46.7 0.00 0.00 0.00 10 1005.4
20260508172121 13 293 32.2 46.7 0.00 0.00 0.00 10 1005.3
20260508171101 13 270 29.0 48.3 0.00 0.00 0.00 10 1005.5
20260508170549 13 293 33.8 46.7 0.00 0.00 0.00 10 1005.7
20260508170044 13 293 29.0 46.7 0.00 0.00 0.00 10 1005.7
20260508165527 12 293 30.6 0.0 0.00 0.00 0.00 10 1005.6